Location: Prague
(50.0830°N, 14.4670°E)
Time: 21:16:44
(UTC+02:00)

Envisat - Pass Details

Date: 26 September 2021
Orbit: 764 x 766 km, 98.2° (Epoch: 27 October)

Event Time Altitude Azimuth Distance (km) Brightness Sun altitude
Rises 05:18:34 0° 23° (NNE) 3,244 6.9 -16.0°
Reaches altitude 10° 05:21:16 10° 36° (NE) 2,312 6.3 -15.6°
Maximum altitude 05:25:29 26° 92° (E) 1,486 5.3 -14.9°
Drops below altitude 10° 05:29:40 10° 148° (SSE) 2,297 5.7 -14.3°
Sets 05:32:20 0° 161° (SSE) 3,217 6.3 -13.9°
